sat.trackr.live / text

‹ back to catalog

SCS-01 F

NORAD 63987 · 2025-100F

PAYLOAD ACTIVE UNKNOWN

§ Identity

Operator
Country
PRC
Launch date
2025-05-14
Launch site
JSC
Launch vehicle
Mass (kg)
RCS (m²)

External: N2YO · Heavens-Above · Gunter

§ Orbital elements

Epoch: 2026-05-25T03:43:47.213184Z

Period
94.75 min
Inclination
97.3639°
Eccentricity
0.0010343
Mean motion
15.19865775 rev/d
Perigee alt
499.1 km
Apogee alt
513.4 km
Semi-major
6,884.4 km
B*
6.4174e-4
RAAN
218.4675°
Arg perigee
46.1597°
Mean anomaly
314.0491°
Rev number
5,713

§ Raw data

SCS-01 F1 63987U 25100F   26145.15540756  .00013735  00000+0  64174-3 0  99952 63987  97.3639 218.4675 0010343  46.1597 314.0491 15.19865775 57130

JSON: /api/v1/satellites/63987 · /tle

For live sub-satellite position, see the globe view (requires WebGL).

§ Visibility from observer

Set your observer location to see the next 7 days of passes ≥ 10°. The values pass through the URL so the page stays shareable.

No JS? Fill the form by hand. The geolocation button needs JavaScript.